Time,TemperatureF,DewpointF,PressureIn,WindDirection,WindDirectionDegrees,WindSpeedMPH,WindSpeedGustMPH,Humidity,HourlyPrecipIn,Conditions,Clouds,dailyrainin,SoftwareType,DateUTC
2013-03-12 00:02:00,43.0,35.0,-100.00,WSW,245,9.0,14.0,73,0.00,,,-99.99,,2013-03-12 04:02:00,
2013-03-12 00:13:00,43.0,35.0,-100.00,West,260,5.0,14.0,73,0.00,,,-99.99,,2013-03-12 04:13:00,
2013-03-12 00:22:00,43.0,35.0,-100.00,WSW,255,4.0,15.0,72,0.00,,,-99.99,,2013-03-12 04:22:00,
2013-03-12 00:32:00,43.0,34.0,-100.00,West,265,9.0,17.0,72,0.00,,,-99.99,,2013-03-12 04:32:00,
2013-03-12 00:43:00,42.0,34.0,-100.00,WSW,240,8.0,19.0,72,0.00,,,-99.99,,2013-03-12 04:43:00,
2013-03-12 00:52:00,42.0,35.0,-100.00,WSW,240,6.0,17.0,74,0.00,,,-99.99,,2013-03-12 04:52:00,
2013-03-12 01:02:00,42.0,34.0,-100.00,SSW,200,9.0,15.0,73,0.00,,,-99.99,,2013-03-12 05:02:00,
2013-03-12 01:12:00,42.0,34.0,-100.00,SW,235,7.0,13.0,71,0.00,,,-99.99,,2013-03-12 05:12:00,
2013-03-12 01:22:00,41.0,34.0,-100.00,SSW,210,3.0,12.0,73,0.00,,,-99.99,,2013-03-12 05:22:00,
2013-03-12 01:32:00,41.0,33.0,-100.00,SW,215,2.0,7.0,73,0.00,,,-99.99,,2013-03-12 05:32:00,
2013-03-12 01:42:00,41.0,33.0,-100.00,SSW,205,3.0,9.0,74,0.00,,,-99.99,,2013-03-12 05:42:00,
2013-03-12 01:52:00,41.0,33.0,-100.00,SW,230,3.0,6.0,75,0.00,,,-99.99,,2013-03-12 05:52:00,
2013-03-12 02:02:00,40.0,33.0,-100.00,SW,215,4.0,11.0,75,0.00,,,-99.99,,2013-03-12 06:02:00,
2013-03-12 02:12:00,40.0,33.0,-100.00,SW,225,4.0,12.0,75,0.00,,,-99.99,,2013-03-12 06:12:00,
2013-03-12 02:22:00,40.0,33.0,-100.00,SW,235,2.0,10.0,77,0.00,,,-99.99,,2013-03-12 06:22:00,
2013-03-12 02:32:00,39.0,33.0,-100.00,SSW,205,4.0,12.0,77,0.00,,,-99.99,,2013-03-12 06:32:00,
2013-03-12 02:42:00,40.0,32.0,-100.00,WSW,245,7.0,12.0,74,0.00,,,-99.99,,2013-03-12 06:42:00,
2013-03-12 02:52:00,39.0,32.0,-100.00,WSW,245,6.0,12.0,75,0.00,,,-99.99,,2013-03-12 06:52:00,
2013-03-12 03:02:00,39.0,31.0,-100.00,SW,235,5.0,11.0,75,0.00,,,-99.99,,2013-03-12 07:02:00,
2013-03-12 03:12:00,39.0,31.0,-100.00,WSW,255,5.0,9.0,75,0.00,,,-99.99,,2013-03-12 07:12:00,
2013-03-12 03:22:00,39.0,32.0,-100.00,West,270,4.0,9.0,75,0.00,,,-99.99,,2013-03-12 07:22:00,
2013-03-12 03:32:00,39.0,31.0,-100.00,WSW,255,6.0,12.0,74,0.00,,,-99.99,,2013-03-12 07:32:00,
2013-03-12 03:42:00,38.0,31.0,-100.00,SW,235,6.0,11.0,73,0.00,,,-99.99,,2013-03-12 07:42:00,
2013-03-12 03:52:00,38.0,31.0,-100.00,SW,230,6.0,11.0,73,0.00,,,-99.99,,2013-03-12 07:52:00,
2013-03-12 04:02:00,38.0,30.0,-100.00,SW,215,7.0,16.0,72,0.00,,,-99.99,,2013-03-12 08:02:00,
2013-03-12 04:13:00,38.0,30.0,-100.00,SW,235,9.0,14.0,73,0.00,,,-99.99,,2013-03-12 08:13:00,
2013-03-12 04:22:00,38.0,31.0,-100.00,WSW,245,6.0,12.0,73,0.00,,,-99.99,,2013-03-12 08:22:00,
2013-03-12 04:33:00,38.0,30.0,-100.00,West,260,9.0,12.0,73,0.00,,,-99.99,,2013-03-12 08:33:00,
2013-03-12 04:42:00,38.0,31.0,-100.00,WSW,250,9.0,14.0,74,0.00,,,-99.99,,2013-03-12 08:42:00,
2013-03-12 04:52:00,38.0,31.0,-100.00,WSW,245,6.0,11.0,75,0.00,,,-99.99,,2013-03-12 08:52:00,
2013-03-12 05:03:00,38.0,31.0,-100.00,SW,225,6.0,12.0,75,0.00,,,-99.99,,2013-03-12 09:03:00,
2013-03-12 05:12:00,38.0,31.0,-100.00,SW,235,4.0,9.0,75,0.00,,,-99.99,,2013-03-12 09:12:00,
2013-03-12 05:22:00,38.0,31.0,-100.00,WSW,245,3.0,8.0,76,0.00,,,-99.99,,2013-03-12 09:22:00,
2013-03-12 05:33:00,38.0,31.0,-100.00,WNW,295,3.0,8.0,76,0.00,,,-99.99,,2013-03-12 09:33:00,
2013-03-12 05:42:00,38.0,31.0,-100.00,West,275,3.0,9.0,75,0.00,,,-99.99,,2013-03-12 09:42:00,
2013-03-12 05:52:00,38.0,30.0,-100.00,WSW,250,4.0,9.0,75,0.00,,,-99.99,,2013-03-12 09:52:00,
2013-03-12 06:02:00,38.0,30.0,-100.00,WSW,250,4.0,8.0,74,0.00,,,-99.99,,2013-03-12 10:02:00,
2013-03-12 06:12:00,37.0,30.0,-100.00,WSW,245,5.0,8.0,75,0.00,,,-99.99,,2013-03-12 10:12:00,
2013-03-12 06:22:00,37.0,30.0,-100.00,WNW,295,4.0,11.0,75,0.00,,,-99.99,,2013-03-12 10:22:00,
2013-03-12 06:32:00,37.0,30.0,-100.00,SW,225,4.0,9.0,75,0.00,,,-99.99,,2013-03-12 10:32:00,
2013-03-12 06:42:00,37.0,30.0,-100.00,WSW,245,9.0,13.0,75,0.00,,,-99.99,,2013-03-12 10:42:00,
2013-03-12 06:52:00,37.0,31.0,-100.00,WSW,245,6.0,16.0,77,0.00,,,-99.99,,2013-03-12 10:52:00,
2013-03-12 07:02:00,37.0,31.0,-100.00,WSW,245,4.0,11.0,78,0.00,,,-99.99,,2013-03-12 11:02:00,
2013-03-12 07:12:00,37.0,30.0,-100.00,WSW,245,5.0,9.0,76,0.00,,,-99.99,,2013-03-12 11:12:00,
2013-03-12 07:22:00,37.0,30.0,-100.00,WSW,240,5.0,12.0,75,0.00,,,-99.99,,2013-03-12 11:22:00,
2013-03-12 07:32:00,36.0,29.0,-100.00,WSW,255,9.0,14.0,74,0.00,,,-99.99,,2013-03-12 11:32:00,
2013-03-12 07:42:00,36.0,30.0,-100.00,SW,225,7.0,13.0,76,0.00,,,-99.99,,2013-03-12 11:42:00,
2013-03-12 07:52:00,36.0,30.0,-100.00,WSW,255,4.0,9.0,78,0.00,,,-99.99,,2013-03-12 11:52:00,
2013-03-12 08:03:00,36.0,31.0,-100.00,WNW,285,1.0,10.0,82,0.00,,,-99.99,,2013-03-12 12:03:00,
2013-03-12 08:12:00,35.0,30.0,-100.00,WNW,300,2.0,9.0,81,0.00,,,-99.99,,2013-03-12 12:12:00,
2013-03-12 08:22:00,35.0,30.0,-100.00,West,275,3.0,9.0,82,0.00,,,-99.99,,2013-03-12 12:22:00,
2013-03-12 08:32:00,35.0,30.0,-100.00,WSW,255,6.0,11.0,83,0.00,,,-99.99,,2013-03-12 12:32:00,
2013-03-12 08:42:00,35.0,30.0,-100.00,WSW,250,6.0,9.0,82,0.00,,,-99.99,,2013-03-12 12:42:00,
2013-03-12 08:52:00,35.0,30.0,-100.00,West,260,4.0,11.0,81,0.00,,,-99.99,,2013-03-12 12:52:00,
2013-03-12 09:02:00,35.0,30.0,-100.00,SW,220,2.0,10.0,80,0.00,,,-99.99,,2013-03-12 13:02:00,
2013-03-12 09:12:00,35.0,29.0,-100.00,WSW,245,6.0,10.0,80,0.00,,,-99.99,,2013-03-12 13:12:00,
2013-03-12 09:22:00,35.0,30.0,-100.00,South,190,4.0,9.0,82,0.00,,,-99.99,,2013-03-12 13:22:00,
2013-03-12 09:32:00,35.0,31.0,-100.00,West,265,2.0,9.0,83,0.00,,,-99.99,,2013-03-12 13:32:00,
2013-03-12 09:43:00,35.0,31.0,-100.00,WSW,240,4.0,8.0,82,0.00,,,-99.99,,2013-03-12 13:43:00,
2013-03-12 09:52:00,35.0,29.0,-100.00,WSW,240,7.0,11.0,79,0.00,,,-99.99,,2013-03-12 13:52:00,
2013-03-12 10:02:00,35.0,30.0,-100.00,West,260,4.0,9.0,80,0.00,,,-99.99,,2013-03-12 14:02:00,
2013-03-12 10:12:00,35.0,30.0,-100.00,West,260,4.0,9.0,80,0.00,,,-99.99,,2013-03-12 14:12:00,
2013-03-12 10:22:00,35.0,29.0,-100.00,WSW,245,6.0,11.0,77,0.00,,,-99.99,,2013-03-12 14:22:00,
2013-03-12 10:33:00,36.0,29.0,-100.00,West,265,8.0,16.0,75,0.00,,,-99.99,,2013-03-12 14:33:00,
2013-03-12 10:42:00,36.0,30.0,-100.00,WSW,250,2.0,15.0,77,0.00,,,-99.99,,2013-03-12 14:42:00,
2013-03-12 10:53:00,36.0,29.0,-100.00,WSW,255,4.0,12.0,76,0.00,,,-99.99,,2013-03-12 14:53:00,
2013-03-12 11:02:00,36.0,29.0,-100.00,WSW,250,9.0,14.0,75,0.00,,,-99.99,,2013-03-12 15:02:00,
2013-03-12 11:12:00,36.0,29.0,-100.00,WSW,250,7.0,12.0,75,0.00,,,-99.99,,2013-03-12 15:12:00,
2013-03-12 11:22:00,35.0,29.0,-100.00,WSW,250,6.0,12.0,77,0.00,,,-99.99,,2013-03-12 15:22:00,
2013-03-12 11:32:00,35.0,29.0,-100.00,WSW,245,6.0,9.0,76,0.00,,,-99.99,,2013-03-12 15:32:00,
2013-03-12 11:42:00,36.0,29.0,-100.00,WSW,250,4.0,9.0,77,0.00,,,-99.99,,2013-03-12 15:42:00,
2013-03-12 11:52:00,36.0,29.0,-100.00,WSW,245,3.0,8.0,75,0.00,,,-99.99,,2013-03-12 15:52:00,
2013-03-12 12:03:00,37.0,30.0,-100.00,SSW,205,6.0,9.0,76,0.00,,,-99.99,,2013-03-12 16:03:00,
2013-03-12 12:12:00,37.0,29.0,-100.00,SW,220,7.0,10.0,71,0.00,,,-99.99,,2013-03-12 16:12:00,
2013-03-12 12:22:00,37.0,28.0,-100.00,SW,220,6.0,12.0,70,0.00,,,-99.99,,2013-03-12 16:22:00,
2013-03-12 12:33:00,37.0,29.0,-100.00,SW,235,6.0,9.0,69,0.00,,,-99.99,,2013-03-12 16:33:00,
2013-03-12 12:43:00,37.0,28.0,-100.00,SSW,200,6.0,11.0,69,0.00,,,-99.99,,2013-03-12 16:43:00,
2013-03-12 12:52:00,37.0,27.0,-100.00,SW,220,9.0,17.0,67,0.00,,,-99.99,,2013-03-12 16:52:00,
2013-03-12 13:03:00,38.0,28.0,-100.00,WSW,255,6.0,12.0,66,0.00,,,-99.99,,2013-03-12 17:03:00,
2013-03-12 13:13:00,38.0,28.0,-100.00,South,190,4.0,8.0,66,0.00,,,-99.99,,2013-03-12 17:13:00,
2013-03-12 13:22:00,39.0,29.0,-100.00,SW,230,6.0,10.0,67,0.00,,,-99.99,,2013-03-12 17:22:00,
2013-03-12 13:34:00,38.0,28.0,-100.00,WSW,245,9.0,14.0,67,0.00,,,-99.99,,2013-03-12 17:34:00,
2013-03-12 13:43:00,38.0,28.0,-100.00,West,260,7.0,13.0,66,0.00,,,-99.99,,2013-03-12 17:43:00,
2013-03-12 13:53:00,38.0,28.0,-100.00,SW,235,8.0,12.0,65,0.00,,,-99.99,,2013-03-12 17:53:00,
2013-03-12 14:03:00,38.0,27.0,-100.00,WSW,250,8.0,15.0,64,0.00,,,-99.99,,2013-03-12 18:03:00,
2013-03-12 14:13:00,39.0,28.0,-100.00,SSW,210,6.0,9.0,64,0.00,,,-99.99,,2013-03-12 18:13:00,
2013-03-12 14:23:00,38.0,28.0,-100.00,WSW,240,7.0,13.0,64,0.00,,,-99.99,,2013-03-12 18:23:00,
2013-03-12 14:33:00,38.0,28.0,-100.00,SW,215,7.0,14.0,65,0.00,,,-99.99,,2013-03-12 18:33:00,
2013-03-12 14:42:00,38.0,26.0,-100.00,West,265,9.0,17.0,60,0.00,,,-99.99,,2013-03-12 18:42:00,
2013-03-12 14:53:00,38.0,26.0,-100.00,WSW,245,9.0,14.0,60,0.00,,,-99.99,,2013-03-12 18:53:00,
2013-03-12 15:04:00,39.0,26.0,-100.00,SW,215,6.0,16.0,60,0.00,,,-99.99,,2013-03-12 19:04:00,
2013-03-12 15:13:00,39.0,27.0,-100.00,WSW,245,7.0,13.0,61,0.00,,,-99.99,,2013-03-12 19:13:00,
2013-03-12 15:23:00,38.0,26.0,-100.00,SW,220,8.0,15.0,60,0.00,,,-99.99,,2013-03-12 19:23:00,
2013-03-12 15:33:00,39.0,27.0,-100.00,SW,230,7.0,12.0,62,0.00,,,-99.99,,2013-03-12 19:33:00,
2013-03-12 15:43:00,39.0,27.0,-100.00,WSW,245,9.0,13.0,62,0.00,,,-99.99,,2013-03-12 19:43:00,
2013-03-12 15:53:00,38.0,27.0,-100.00,WSW,240,9.0,16.0,61,0.00,,,-99.99,,2013-03-12 19:53:00,
2013-03-12 16:02:00,39.0,27.0,-100.00,SW,215,8.0,14.0,61,0.00,,,-99.99,,2013-03-12 20:02:00,
2013-03-12 16:12:00,40.0,27.0,-100.00,WSW,240,6.0,13.0,60,0.00,,,-99.99,,2013-03-12 20:12:00,
2013-03-12 16:23:00,39.0,26.0,-100.00,SW,235,9.0,13.0,59,0.00,,,-99.99,,2013-03-12 20:23:00,
2013-03-12 16:33:00,39.0,27.0,-100.00,WSW,255,6.0,16.0,61,0.00,,,-99.99,,2013-03-12 20:33:00,
2013-03-12 16:42:00,39.0,27.0,-100.00,West,270,6.0,9.0,60,0.00,,,-99.99,,2013-03-12 20:42:00,
2013-03-12 16:52:00,39.0,27.0,-100.00,WSW,250,11.0,16.0,60,0.00,,,-99.99,,2013-03-12 20:52:00,
2013-03-12 17:03:00,39.0,26.0,-100.00,WSW,245,9.0,21.0,57,0.00,,,-99.99,,2013-03-12 21:03:00,
2013-03-12 17:13:00,39.0,27.0,-100.00,West,265,7.0,12.0,60,0.00,,,-99.99,,2013-03-12 21:13:00,
2013-03-12 17:22:00,39.0,27.0,-100.00,WSW,245,7.0,14.0,61,0.00,,,-99.99,,2013-03-12 21:22:00,
2013-03-12 17:33:00,39.0,27.0,-100.00,WSW,245,9.0,14.0,61,0.00,,,-99.99,,2013-03-12 21:33:00,
2013-03-12 17:43:00,39.0,27.0,-100.00,WSW,245,7.0,12.0,61,0.00,,,-99.99,,2013-03-12 21:43:00,
2013-03-12 17:52:00,39.0,28.0,-100.00,West,260,2.0,9.0,62,0.00,,,-99.99,,2013-03-12 21:52:00,
2013-03-12 18:02:00,39.0,27.0,-100.00,West,280,6.0,12.0,62,0.00,,,-99.99,,2013-03-12 22:02:00,
2013-03-12 18:12:00,39.0,28.0,-100.00,WSW,255,6.0,12.0,63,0.00,,,-99.99,,2013-03-12 22:12:00,
2013-03-12 18:22:00,39.0,28.0,-100.00,WSW,255,6.0,12.0,63,0.00,,,-99.99,,2013-03-12 22:22:00,
2013-03-12 18:33:00,39.0,27.0,-100.00,WSW,255,7.0,14.0,63,0.00,,,-99.99,,2013-03-12 22:33:00,
2013-03-12 18:43:00,39.0,27.0,-100.00,South,185,2.0,9.0,63,0.00,,,-99.99,,2013-03-12 22:43:00,
2013-03-12 18:52:00,39.0,27.0,-100.00,SW,235,7.0,11.0,62,0.00,,,-99.99,,2013-03-12 22:52:00,
2013-03-12 19:03:00,38.0,26.0,-100.00,SSW,210,6.0,12.0,61,0.00,,,-99.99,,2013-03-12 23:03:00,
2013-03-12 19:12:00,38.0,27.0,-100.00,SW,225,4.0,6.0,62,0.00,,,-99.99,,2013-03-12 23:12:00,
2013-03-12 19:22:00,38.0,27.0,-100.00,SSW,195,4.0,9.0,63,0.00,,,-99.99,,2013-03-12 23:22:00,
2013-03-12 19:34:00,38.0,27.0,-100.00,SW,230,2.0,6.0,64,0.00,,,-99.99,,2013-03-12 23:34:00,
2013-03-12 19:43:00,38.0,28.0,-100.00,WSW,245,1.0,4.0,64,0.00,,,-99.99,,2013-03-12 23:43:00,
2013-03-12 19:52:00,38.0,28.0,-100.00,SSW,200,1.0,6.0,64,0.00,,,-99.99,,2013-03-12 23:52:00,
2013-03-12 20:03:00,38.0,28.0,-100.00,SSW,205,1.0,3.0,65,0.00,,,-99.99,,2013-03-13 00:03:00,
2013-03-12 20:12:00,38.0,27.0,-100.00,SSW,210,2.0,5.0,65,0.00,,,-99.99,,2013-03-13 00:12:00,
2013-03-12 20:23:00,38.0,28.0,-100.00,SSW,195,2.0,5.0,65,0.00,,,-99.99,,2013-03-13 00:23:00,
2013-03-12 20:33:00,38.0,28.0,-100.00,SSW,195,2.0,5.0,66,0.00,,,-99.99,,2013-03-13 00:33:00,
2013-03-12 20:42:00,38.0,28.0,-100.00,South,170,0.0,5.0,66,0.00,,,-99.99,,2013-03-13 00:42:00,
2013-03-12 20:53:00,38.0,28.0,-100.00,South,180,1.0,5.0,66,0.00,,,-99.99,,2013-03-13 00:53:00,
2013-03-12 21:03:00,38.0,29.0,-100.00,South,180,0.0,3.0,69,0.00,,,-99.99,,2013-03-13 01:03:00,
2013-03-12 21:12:00,37.0,28.0,-100.00,South,175,0.0,2.0,67,0.00,,,-99.99,,2013-03-13 01:12:00,
2013-03-12 21:22:00,37.0,28.0,-100.00,SSW,195,0.0,2.0,69,0.00,,,-99.99,,2013-03-13 01:22:00,
2013-03-12 21:33:00,37.0,28.0,-100.00,SSW,205,0.0,1.0,69,0.00,,,-99.99,,2013-03-13 01:33:00,
2013-03-12 21:42:00,37.0,29.0,-100.00,SSW,205,0.0,2.0,73,0.00,,,-99.99,,2013-03-13 01:42:00,
2013-03-12 21:52:00,36.0,29.0,-100.00,SSW,195,0.0,0.0,74,0.00,,,-99.99,,2013-03-13 01:52:00,
2013-03-12 22:03:00,36.0,29.0,-100.00,WSW,250,0.0,0.0,76,0.00,,,-99.99,,2013-03-13 02:03:00,
2013-03-12 22:12:00,36.0,29.0,-100.00,NNW,345,0.0,0.0,77,0.00,,,-99.99,,2013-03-13 02:12:00,
2013-03-12 22:22:00,35.0,29.0,-100.00,NW,325,0.0,1.0,79,0.00,,,-99.99,,2013-03-13 02:22:00,
2013-03-12 22:32:00,35.0,29.0,-100.00,West,280,0.0,0.0,79,0.00,,,-99.99,,2013-03-13 02:32:00,
2013-03-12 22:43:00,35.0,29.0,-100.00,WSW,245,0.0,0.0,78,0.00,,,-99.99,,2013-03-13 02:43:00,
2013-03-12 22:52:00,35.0,29.0,-100.00,West,275,1.0,3.0,79,0.00,,,-99.99,,2013-03-13 02:52:00,
2013-03-12 23:02:00,35.0,29.0,-100.00,SW,220,0.0,2.0,78,0.00,,,-99.99,,2013-03-13 03:02:00,
2013-03-12 23:12:00,37.0,28.0,-100.00,SW,235,2.0,5.0,71,0.00,,,-99.99,,2013-03-13 03:12:00,
2013-03-12 23:22:00,36.0,31.0,-100.00,West,265,11.0,18.0,79,3.39,,,-99.99,,2013-03-13 03:22:00,
2013-03-12 23:32:00,35.0,31.0,-100.00,West,280,4.0,11.0,84,0.00,,,-99.99,,2013-03-13 03:32:00,
2013-03-12 23:42:00,35.0,32.0,-100.00,WNW,290,3.0,8.0,86,0.00,,,-99.99,,2013-03-13 03:42:00,
2013-03-12 23:52:00,35.0,32.0,-100.00,WNW,295,3.0,6.0,88,0.00,,,-99.99,,2013-03-13 03:52:00,